STARLINK-3266 (50195 NORAD) Tracking and Keplerian Element Data

This shows tracking and keplerian element data for the satellite.

Feedback or suggestion? Click here.




ElementValue
Catalog50195
NameSTARLINK-3266
Epoch Orbit130
Epoch Day140.58334491
Epoch Year2022
RAAN355.0564
Inclination53.2156
Eccentricity0.0001525
Argument of Perigee59.2741
Mean Anonmoly282.1872
Mean Motion15.08842496
Decay Rate0.00017529
L11 50195U 21125AR 22140.58334491 .00017529 00000+0 11166-2 0 9997
L22 50195 53.2156 355.0564 0001525 59.2741 282.1872 15.08842496 1304

Live tracking and technical data element details for STARLINK-3266 (NORAD 50195). STARLINK-3266 can be tracked NOW for your location showing map with azimuth and elevation plus other details from your city location.

Track the satellite on the map from your city or location and see movement details for azimuth, elevation, latitude, longitude, range, height, and movement on the map or in text.







IsCatalogInMostPopularTable: catalog: 50195, numindb: 24
Update: records affected: 1



GetName: 50195 STARLINK-3266

Hit Count: updated at: Mon, 23 May 2022 21:31:38 GMT